Date_and_time,latitude,longitude,wind_speed,RelWindDirFrom,WindDirFrom,air_pressure,air_temperature,relative_humidity,Temp,platform_speed_wrt_ground,air_pressure_at_mean_sea_level,platform_orientation
2018-10-25 23:40,50.6304383333333,-96.980745,8.9,9.6,64,985.06,6.0,95,4.41,0.0,1012.24,20.1
2018-10-25 23:50,50.6304366666667,-96.980755,8.3,9.3,63,985.12,5.7,98,4.42,0.0,1012.32,20.1
2018-10-26 00:00,50.630435,-96.9807566666667,7.9,8.7,62,985.22,5.6,99,4.41,0.0,1012.45,48.3
2018-10-26 00:10,50.6304333333333,-96.9807566666667,8.2,8.9,60,985.19,5.5,99,4.40,0.0,1012.41,48.3
2018-10-26 00:20,50.6304316666667,-96.9807566666667,8.1,9.0,63,985.09,5.4,99,4.39,0.0,1012.32,48.3
2018-10-26 00:30,50.6304233333333,-96.980765,7.8,9.0,63,985.06,5.3,99,4.39,0.0,1012.30,48.3
2018-10-26 00:40,50.6304216666667,-96.9807766666667,8.6,9.7,60,985.07,5.3,99,4.40,0.0,1012.31,48.3
2018-10-26 00:50,50.6304216666667,-96.9807716666667,8.0,8.9,45,985.30,5.4,99,4.40,0.0,1012.54,48.3
2018-10-26 01:00,50.63042,-96.9807683333333,8.8,9.6,51,985.30,5.3,99,4.40,0.0,1012.53,142.0
2018-10-26 01:10,50.63042,-96.9807683333333,8.9,10.0,54,985.20,5.3,99,4.41,0.0,1012.42,142.0
2018-10-26 01:20,50.6304233333333,-96.980765,7.5,8.6,43,985.19,5.3,99,4.40,0.0,1012.41,142.0
2018-10-26 01:30,50.630425,-96.9807666666667,7.1,8.1,40,985.17,5.2,99,4.40,0.0,1012.40,142.0
2018-10-26 01:40,50.6304266666667,-96.9807766666667,8.0,9.0,50,985.10,5.2,100,4.41,0.0,1012.34,142.0
2018-10-26 01:50,50.6304316666667,-96.98077,8.2,9.3,54,985.04,5.3,100,4.40,0.0,1012.27,142.0
2018-10-26 02:00,50.63042,-96.9807666666667,6.9,8.8,49,984.93,5.2,100,4.40,0.0,1012.17,194.5
2018-10-26 02:10,50.63042,-96.9807733333333,5.4,6.4,33,985.00,5.2,100,4.40,0.0,1012.25,194.5
2018-10-26 02:20,50.6304216666667,-96.9807683333333,5.7,6.8,31,984.92,5.2,100,4.39,0.0,1012.17,194.5
2018-10-26 02:30,50.6304233333333,-96.9807683333333,6.5,7.1,32,984.89,5.1,100,4.40,0.0,1012.15,194.5
2018-10-26 02:40,50.6304233333333,-96.9807666666667,5.7,6.2,28,984.91,5.0,100,4.41,0.0,1012.17,194.5
2018-10-26 02:50,50.6304316666667,-96.9807916666667,6.0,6.8,30,984.98,5.1,100,4.41,0.0,1012.23,194.5
2018-10-26 03:00,50.6304216666667,-96.9807633333333,6.8,7.9,11,985.01,5.0,100,4.41,0.0,1012.27,203.5
2018-10-26 03:10,50.63042,-96.9807616666667,7.6,9.8,12,984.97,5.2,100,4.41,0.0,1012.22,203.5
2018-10-26 03:20,50.63042,-96.9807566666667,8.9,11.1,14,984.85,5.1,100,4.41,0.0,1012.11,203.5
2018-10-26 03:30,50.6303733333333,-96.980735,8.7,9.8,16,984.83,5.0,100,4.41,0.0,1012.10,203.5
2018-10-26 03:40,50.630375,-96.9807633333333,8.3,9.4,20,984.68,4.8,100,4.42,0.0,1011.94,203.5
2018-10-26 03:50,50.6303916666667,-96.980775,8.5,9.6,22,984.65,4.7,100,4.44,0.0,1011.92,203.5
2018-10-26 04:00,50.6304,-96.9807766666667,8.3,9.0,18,984.68,4.7,100,4.44,0.0,1011.95,203.5
2018-10-26 04:10,50.63042,-96.9807733333333,8.1,8.8,19,984.74,4.7,100,4.44,0.0,1012.02,203.5
2018-10-26 04:20,50.6304066666667,-96.9807683333333,8.1,9.1,17,984.65,4.7,101,4.44,0.0,1011.93,203.5
2018-10-26 04:30,50.6304083333333,-96.98077,8.3,9.1,21,984.60,4.7,101,4.44,0.0,1011.87,203.5
2018-10-26 04:40,50.6304216666667,-96.9807766666667,7.9,8.9,33,984.64,4.7,101,4.43,0.0,1011.92,203.5
2018-10-26 04:50,50.6304183333333,-96.980775,7.7,8.7,36,984.68,4.7,101,4.44,0.0,1011.97,203.5
2018-10-26 05:00,50.6304216666667,-96.9807683333333,7.1,8.1,41,984.63,4.7,101,4.44,0.0,1011.91,0.0
2018-10-26 05:10,50.6304233333333,-96.980775,6.8,7.4,42,984.63,4.7,101,4.44,0.0,1011.91,0.0
2018-10-26 05:20,50.6304266666667,-96.9807616666667,7.1,7.8,45,984.67,4.7,101,4.44,0.0,1011.95,0.0
2018-10-26 05:30,50.6304133333333,-96.9807766666667,7.3,8.3,55,984.65,4.8,100,4.44,0.0,1011.94,0.0
2018-10-26 05:40,50.6304383333333,-96.980775,7.4,8.3,59,984.57,4.8,100,4.45,0.0,1011.86,0.0
2018-10-26 05:50,50.6304316666667,-96.98077,5.4,6.9,34,984.62,4.8,100,4.44,0.0,1011.92,0.0
2018-10-26 06:00,50.63043,-96.980775,5.5,6.3,3,984.68,4.7,100,4.44,0.0,1011.98,311.7
2018-10-26 06:10,50.6304316666667,-96.98077,5.9,6.7,26,984.61,5.0,100,4.45,0.0,1011.89,311.7
2018-10-26 06:20,50.63043,-96.9807666666667,5.9,7.0,8,984.58,4.9,100,4.44,0.0,1011.87,311.7
2018-10-26 06:30,50.63043,-96.9807683333333,6.3,7.7,16,984.52,5.0,100,4.44,0.0,1011.80,311.7
2018-10-26 06:40,50.6304283333333,-96.9807666666667,6.5,7.5,29,984.41,4.9,100,4.44,0.0,1011.69,311.7
2018-10-26 06:50,50.6304283333333,-96.9807683333333,7.0,8.3,13,984.29,4.7,100,4.44,0.0,1011.58,311.7
2018-10-26 07:00,50.6304133333333,-96.980775,7.0,8.6,27,984.14,4.9,100,4.45,0.0,1011.41,360.0
2018-10-26 07:10,50.6304166666667,-96.98077,5.8,6.8,48,984.03,4.9,100,4.45,0.0,1011.29,360.0
2018-10-26 07:20,50.63043,-96.9807916666667,5.2,6.4,23,983.98,4.6,100,4.46,0.0,1011.25,360.0
2018-10-26 07:30,50.6304266666667,-96.9807733333333,6.8,7.8,15,983.84,4.6,100,4.46,0.0,1011.11,360.0
2018-10-26 07:40,50.630425,-96.9807716666667,7.0,7.9,25,983.74,4.6,100,4.47,0.0,1011.01,360.0
2018-10-26 07:50,50.630425,-96.9807766666667,7.0,8.5,18,983.76,4.5,100,4.47,0.0,1011.04,360.0
2018-10-26 08:00,50.6304233333333,-96.9807716666667,8.3,9.7,13,983.73,4.7,100,4.46,0.0,1010.99,347.4
2018-10-26 08:10,50.63044,-96.980745,8.5,9.9,15,983.72,4.7,100,4.46,0.0,1010.98,347.4
2018-10-26 08:20,50.63041,-96.9807616666667,8.8,9.8,18,983.68,4.7,100,4.46,0.0,1010.93,347.4
2018-10-26 08:30,50.6304166666667,-96.9807583333333,8.9,9.7,18,983.68,4.6,100,4.46,0.0,1010.94,347.4
2018-10-26 08:40,50.6304183333333,-96.9807533333333,9.0,10.1,21,983.75,4.6,100,4.47,0.0,1011.03,347.4
2018-10-26 08:50,50.63042,-96.9807533333333,8.8,10.0,24,983.73,4.6,100,4.48,0.0,1010.99,347.4
2018-10-26 09:00,50.6304233333333,-96.9807533333333,8.4,9.4,38,983.68,4.7,101,4.48,0.0,1010.94,90.0
2018-10-26 09:10,50.630435,-96.9807533333333,6.3,7.8,35,983.67,4.7,100,4.48,0.0,1010.94,90.0
2018-10-26 09:20,50.6304366666667,-96.9807566666667,7.0,8.6,13,983.66,4.6,101,4.48,0.0,1010.94,90.0
2018-10-26 09:30,50.6304333333333,-96.9807533333333,7.4,8.4,21,983.63,4.7,101,4.49,0.0,1010.91,90.0
2018-10-26 09:40,50.630435,-96.9807533333333,6.9,7.6,17,983.58,4.7,101,4.49,0.0,1010.86,90.0
2018-10-26 09:50,50.6304333333333,-96.980755,7.4,8.1,18,983.54,4.8,101,4.48,0.0,1010.80,90.0
2018-10-26 10:00,50.630435,-96.980755,7.5,8.4,29,983.46,4.7,101,4.49,0.0,1010.73,32.1
2018-10-26 10:10,50.630435,-96.9807566666667,7.3,8.1,39,983.44,4.7,101,4.50,0.0,1010.70,32.1
2018-10-26 10:20,50.6304416666667,-96.980745,7.3,8.0,51,983.41,4.7,101,4.50,0.0,1010.68,32.1
2018-10-26 10:30,50.6304166666667,-96.9807833333333,7.1,7.7,68,983.41,4.8,101,4.50,0.0,1010.67,32.1
2018-10-26 10:40,50.6304183333333,-96.9807716666667,5.3,6.9,58,983.37,4.8,101,4.50,0.0,1010.63,32.1
2018-10-26 10:50,50.6304183333333,-96.9807666666667,4.6,5.8,5,983.33,4.6,101,4.50,0.0,1010.60,32.1
2018-10-26 11:00,50.6304266666667,-96.980755,3.7,5.1,13,983.21,5.0,101,4.50,0.0,1010.46,90.0
2018-10-26 11:10,50.6304316666667,-96.9807633333333,4.4,7.1,68,983.12,5.5,101,4.50,0.0,1010.34,90.0
2018-10-26 11:20,50.6304316666667,-96.9807666666667,5.9,7.8,54,983.07,5.5,100,4.50,0.0,1010.28,90.0
2018-10-26 11:30,50.6304316666667,-96.980765,6.0,8.1,28,983.07,5.3,100,4.50,0.0,1010.30,90.0
2018-10-26 11:40,50.6304283333333,-96.9807616666667,6.5,7.5,12,983.03,4.9,100,4.50,0.0,1010.27,90.0
2018-10-26 11:50,50.6304283333333,-96.9807616666667,6.0,6.6,28,983.02,4.8,101,4.50,0.0,1010.27,90.0
2018-10-26 12:00,50.6304183333333,-96.98077,6.2,7.2,39,982.94,4.8,101,4.50,0.0,1010.19,192.6
2018-10-26 12:10,50.630415,-96.9807566666667,6.3,7.5,40,982.90,4.7,101,4.50,0.0,1010.15,192.6
2018-10-26 12:20,50.6304166666667,-96.98075,5.8,7.1,50,982.85,4.8,101,4.51,0.0,1010.09,192.6
2018-10-26 12:30,50.6304166666667,-96.980755,5.1,6.6,47,982.83,4.9,101,4.51,0.0,1010.07,192.6
2018-10-26 12:40,50.630415,-96.9807566666667,4.7,6.7,40,982.75,4.7,101,4.51,0.0,1009.99,192.6
2018-10-26 12:50,50.6304166666667,-96.9807566666667,6.4,7.7,68,982.72,4.9,101,4.51,0.0,1009.94,192.6
2018-10-26 13:00,50.6304366666667,-96.9807866666667,6.2,7.4,70,982.75,4.9,101,4.51,0.0,1009.95,270.0
2018-10-26 13:10,50.6304316666667,-96.9807816666667,5.6,7.8,70,982.81,4.9,101,4.52,0.0,1010.00,270.0
2018-10-26 13:20,50.63043,-96.98077,3.1,4.8,47,982.83,4.8,101,4.52,0.0,1010.05,270.0
2018-10-26 13:30,50.6304333333333,-96.9807716666667,4.0,5.8,64,982.77,4.8,101,4.52,0.0,1010.00,270.0
2018-10-26 13:40,50.630435,-96.9807716666667,4.5,6.0,68,982.80,4.9,101,4.52,0.0,1010.03,270.0
2018-10-26 13:50,50.6304333333333,-96.98077,3.1,4.2,31,982.88,4.8,101,4.52,0.0,1010.12,270.0
2018-10-26 14:00,50.630415,-96.9807816666667,2.8,3.7,38,982.84,4.9,101,4.52,0.0,1010.08,237.7
2018-10-26 14:10,50.6304333333333,-96.980775,2.9,3.7,29,982.86,4.8,101,4.52,0.0,1010.09,237.7
2018-10-26 14:20,50.6304333333333,-96.9807633333333,3.4,4.2,27,982.81,4.8,101,4.53,0.0,1010.04,237.7
2018-10-26 14:30,50.6304333333333,-96.98076,3.3,4.0,32,982.80,4.9,101,4.53,0.0,1010.04,237.7
2018-10-26 14:40,50.6304316666667,-96.98076,3.3,3.9,48,982.73,4.9,101,4.53,0.0,1009.95,237.7
2018-10-26 14:50,50.63042,-96.9807666666667,3.2,3.6,47,982.64,4.9,101,4.53,0.0,1009.86,237.7
2018-10-26 15:00,50.6304183333333,-96.980755,3.2,3.7,31,982.64,4.8,101,4.53,0.0,1009.86,90.0
2018-10-26 15:10,50.63042,-96.9807566666667,3.2,3.4,22,982.60,4.8,101,4.53,0.0,1009.83,90.0
2018-10-26 15:20,50.6304216666667,-96.9807583333333,2.9,3.3,43,982.60,4.8,101,4.53,0.0,1009.82,90.0
2018-10-26 15:30,50.6304133333333,-96.9807583333333,3.1,3.7,67,982.60,4.9,101,4.53,0.0,1009.82,90.0
2018-10-26 15:40,50.6304083333333,-96.980785,2.9,3.6,67,982.62,4.9,101,4.53,0.0,1009.85,90.0
2018-10-26 15:50,50.63041,-96.9807716666667,2.7,3.2,57,982.59,4.9,101,4.53,0.0,1009.82,90.0
2018-10-26 16:00,50.6304033333333,-96.980785,2.6,3.0,43,982.51,4.8,101,4.53,0.0,1009.74,159.8
2018-10-26 16:10,50.6304016666667,-96.9807816666667,3.0,3.4,47,982.45,4.8,101,4.54,0.0,1009.67,159.8
2018-10-26 16:20,50.6304033333333,-96.980785,2.9,3.2,57,982.40,4.8,101,4.54,0.0,1009.62,159.8
2018-10-26 16:30,50.6304033333333,-96.9807816666667,2.7,3.2,34,982.36,4.7,101,4.55,0.0,1009.59,159.8
2018-10-26 16:40,50.630415,-96.9807783333333,3.0,4.0,4,982.30,4.6,101,4.55,0.0,1009.53,159.8
2018-10-26 16:50,50.6304183333333,-96.9807816666667,4.3,5.1,26,982.24,4.7,101,4.55,0.0,1009.47,159.8
2018-10-26 17:00,50.6304166666667,-96.98078,4.9,5.3,34,982.21,4.6,101,4.56,0.0,1009.44,0.0
2018-10-26 17:10,50.6304083333333,-96.9807716666667,5.0,5.4,38,982.16,4.5,101,4.56,0.0,1009.39,0.0
2018-10-26 17:20,50.63041,-96.9807666666667,5.0,5.4,44,982.06,4.5,101,4.56,0.0,1009.28,0.0
2018-10-26 17:30,50.630425,-96.9807566666667,5.6,6.2,51,981.89,4.5,101,4.55,0.0,1009.11,0.0
2018-10-26 17:40,50.6304116666667,-96.9807666666667,4.2,5.9,39,981.80,4.4,101,4.54,0.0,1009.03,0.0
2018-10-26 17:50,50.6304216666667,-96.9807633333333,4.5,6.5,29,981.63,4.4,101,4.54,0.0,1008.85,0.0
2018-10-26 18:00,50.630425,-96.9807633333333,6.8,7.5,56,981.38,4.5,101,4.54,0.0,1008.59,360.0
2018-10-26 18:10,50.6304216666667,-96.9807616666667,4.8,7.0,42,981.29,4.6,101,4.54,0.0,1008.49,360.0
2018-10-26 18:20,50.6304183333333,-96.98076,3.3,4.1,9,981.28,4.6,101,4.54,0.0,1008.49,360.0
2018-10-26 18:30,50.6304166666667,-96.9807616666667,4.3,5.1,16,981.23,4.7,101,4.54,0.0,1008.44,360.0
2018-10-26 18:40,50.630415,-96.9807633333333,3.8,4.8,16,981.16,4.7,101,4.54,0.0,1008.36,360.0
2018-10-26 18:50,50.6304,-96.98078,2.7,3.4,8,981.05,4.7,101,4.55,0.0,1008.26,360.0
2018-10-26 19:00,50.63038,-96.9807733333333,1.6,2.3,11,980.98,4.8,101,4.58,0.0,1008.18,360.0
2018-10-26 19:10,50.630395,-96.9807666666667,1.9,3.7,57,980.91,5.0,101,4.60,0.0,1008.09,360.0
2018-10-26 19:20,50.630415,-96.9807816666667,2.7,4.5,78,980.84,5.2,101,4.61,0.0,1008.02,360.0
2018-10-26 19:30,50.6304133333333,-96.9807766666667,3.4,5.0,76,980.78,5.4,101,4.62,0.0,1007.95,360.0
2018-10-26 19:40,50.6304133333333,-96.9807733333333,3.3,5.8,88,980.68,5.5,101,4.61,0.0,1007.84,360.0
2018-10-26 19:50,50.6304133333333,-96.9807716666667,2.7,4.1,85,980.63,5.6,101,4.60,0.0,1007.78,360.0
2018-10-26 20:00,50.6303916666667,-96.9807583333333,0.8,2.6,94,980.62,5.7,101,4.60,0.0,1007.76,146.3
2018-10-26 20:10,50.6304133333333,-96.9807666666667,0.0,0.6,0,980.60,5.4,101,4.60,0.0,1007.75,146.3
2018-10-26 20:20,50.630415,-96.9807633333333,1.3,1.9,87,980.53,5.9,100,4.59,0.0,1007.66,146.3
2018-10-26 20:30,50.6304133333333,-96.980765,1.6,2.0,84,980.50,5.8,100,4.59,0.0,1007.62,146.3
2018-10-26 20:40,50.6304116666667,-96.9807616666667,0.8,1.4,89,980.49,5.9,100,4.60,0.0,1007.61,146.3
2018-10-26 20:50,50.63042,-96.980765,1.1,1.7,56,980.47,5.7,100,4.61,0.0,1007.60,146.3
2018-10-26 21:00,50.6304216666667,-96.9807666666667,1.8,2.2,42,980.40,5.4,101,4.61,0.0,1007.53,360.0
2018-10-26 21:10,50.63042,-96.9807666666667,1.6,2.1,56,980.35,5.4,101,4.63,0.0,1007.46,360.0
2018-10-26 21:20,50.6304183333333,-96.980765,2.0,2.5,57,980.30,5.4,101,4.63,0.0,1007.41,360.0
2018-10-26 21:30,50.6303816666667,-96.9807883333333,2.6,3.2,37,980.28,5.2,101,4.64,0.0,1007.39,360.0
2018-10-26 21:40,50.6304116666667,-96.9807616666667,2.5,2.9,23,980.28,5.1,101,4.63,0.0,1007.39,360.0
2018-10-26 21:50,50.6304133333333,-96.9807633333333,2.7,3.2,24,980.25,5.1,101,4.74,0.0,1007.35,360.0
2018-10-26 22:00,50.6304116666667,-96.9807733333333,2.9,3.3,35,980.20,5.1,101,4.63,0.0,1007.31,360.0
2018-10-26 22:10,50.6304133333333,-96.9807716666667,2.7,3.2,19,980.21,5.1,101,4.64,0.0,1007.31,360.0
2018-10-26 22:20,50.630415,-96.9807666666667,2.6,3.0,18,980.14,5.2,101,4.64,0.0,1007.23,360.0
2018-10-26 22:30,50.63043,-96.9807533333333,3.3,3.9,53,980.05,5.4,101,4.63,0.0,1007.12,360.0
2018-10-26 22:40,50.6304283333333,-96.9807566666667,3.4,3.9,62,979.98,5.4,101,4.63,0.0,1007.06,360.0
2018-10-26 22:50,50.6304316666667,-96.9807566666667,3.4,4.3,69,979.93,5.3,101,4.63,0.0,1007.03,360.0
2018-10-26 23:00,50.63043,-96.9807566666667,1.8,2.8,38,979.98,5.2,101,4.62,0.0,1007.09,360.0
2018-10-26 23:10,50.63043,-96.980755,1.4,3.1,98,979.98,5.4,101,4.62,0.0,1007.07,360.0
2018-10-26 23:20,50.6304283333333,-96.980755,3.5,5.0,130,979.92,5.5,101,4.63,0.0,1007.02,360.0
2018-10-26 23:30,50.63043,-96.9807533333333,3.5,4.9,142,979.94,5.1,101,4.63,0.0,1007.06,360.0
2018-10-26 23:40,50.63043,-96.9807533333333,5.1,7.0,129,979.95,5.6,101,4.65,0.0,1007.05,360.0
